Theta_e
329 329 330 330 331 330 330 330 331 330 329 330 328 328 324 324 324 324 322 323 323 322 321 321 319 320 319 319 319 321 319 319 319 319 318 318 317 317 317 316 315 315 317 318 317 318 316 316 317 318 319 318 318 318 317 317 318 318 318 316 315 317 316 315 311 309 309 311 309 306 307 309 306 308 307 309 310 310 307 310 311 311 310 311 311
330 330 331 331 331 331 331 331 330 330 330 330 330 328 325 325 326 324 323 324 323 320 320 322 321 321 320 319 321 321 320 319 320 319 317 317 318 319 318 316 315 315 316 315 317 317 318 316 314 316 317 316 317 314 315 314 315 315 315 315 313 314 316 314 312 311 308 309 308 308 307 309 306 307 309 310 310 310 308 309 310 309 309 310 310
329 330 329 329 330 330 330 330 330 331 330 328 329 327 326 326 326 324 323 324 324 322 321 322 320 320 320 320 320 321 320 320 321 320 319 318 316 318 318 317 316 316 316 314 313 315 316 316 315 317 318 317 317 316 316 314 315 314 315 314 313 313 313 314 313 311 310 308 310 308 309 308 309 307 308 310 310 309 308 310 309 309 309 311 309
328 328 329 329 329 329 329 329 329 329 329 329 329 328 326 325 325 325 324 323 321 324 323 321 320 319 319 319 320 320 320 321 320 319 319 320 320 318 318 318 317 316 315 314 313 314 316 316 316 316 317 316 315 315 316 315 316 315 315 315 314 312 315 315 314 313 312 309 310 308 309 310 308 308 308 309 309 309 310 310 310 309 310 310 310
326 326 327 328 328 328 328 328 328 328 327 327 328 328 327 325 325 325 325 324 322 323 322 322 321 320 320 318 318 319 319 319 319 320 320 321 320 319 319 318 319 318 318 317 316 316 316 317 316 316 316 317 316 315 315 316 315 316 315 314 313 314 314 314 314 314 313 311 310 310 311 309 309 310 309 308 310 310 311 311 310 310 311 312 311
326 326 327 327 327 327 328 328 327 328 327 327 327 328 328 327 325 325 325 324 324 323 322 322 321 321 320 319 319 320 320 320 319 319 319 320 321 321 320 320 319 319 319 319 318 318 319 317 318 317 316 317 316 316 317 316 315 315 314 314 313 314 314 314 314 314 313 311 312 310 311 310 310 311 310 310 310 309 310 311 311 312 311 311 311
327 327 327 327 327 327 327 327 327 327 327 327 327 327 327 327 326 325 325 326 326 325 324 323 323 323 321 321 321 321 322 321 322 321 320 321 321 321 321 321 321 321 320 319 319 320 319 318 319 319 317 316 317 316 317 317 316 315 315 315 313 314 314 314 313 313 313 312 311 312 311 311 311 310 309 310 310 309 309 308 309 310 311 310 308
326 326 325 326 327 327 328 327 327 327 327 327 327 327 327 327 326 326 325 325 325 325 324 323 324 324 324 324 324 324 324 323 323 324 324 325 325 325 325 324 323 323 323 322 322 321 321 320 320 320 318 317 319 318 317 316 316 316 316 315 314 313 313 313 313 313 312 312 311 311 311 312 311 312 311 311 310 309 309 308 306 307 308 309 309
325 325 325 326 326 327 327 327 327 327 326 326 326 325 325 326 326 325 326 326 326 325 325 325 324 324 325 325 325 326 325 325 325 324 324 324 326 326 326 325 325 325 325 325 325 324 324 323 322 322 321 319 313 313 311 310 317 315 316 315 313 312 313 313 313 312 312 312 310 312 311 311 311 311 309 309 307 306 308 309 307 308 307 307 307
323 323 323 325 325 326 326 326 325 326 326 327 325 325 325 325 326 326 326 326 327 326 326 326 325 325 325 325 326 326 326 327 321 310 313 323 325 325 326 325 324 325 325 325 325 326 325 325 325 318 314 310 308 303 302 301 305 312 316 314 312 312 313 313 312 313 312 310 310 310 310 310 310 311 309 309 310 310 308 308 305 305 306 305 306
322 322 322 323 323 324 324 324 324 324 325 325 324 324 324 325 326 327 326 326 327 327 327 326 326 326 325 325 325 324 324 324 304 301 302 305 319 324 324 324 325 325 324 325 324 323 325 325 326 319 315 311 312 300 299 299 298 297 298 298 303 317 313 311 311 312 311 311 311 310 309 308 310 311 310 308 309 308 306 306 305 305 303 301 299
318 320 321 322 323 323 323 324 324 324 324 324 324 324 325 325 325 325 326 326 327 328 326 325 325 325 325 325 324 324 325 309 299 299 298 298 308 322 324 324 323 323 324 324 323 323 323 323 326 326 324 321 320 316 304 297 296 295 294 294 292 290 293 309 312 311 311 310 309 310 309 309 309 310 309 308 306 305 306 306 305 303 302 300 300
312 314 316 318 320 322 322 323 324 324 324 324 324 324 323 324 325 325 325 326 326 324 324 324 323 325 325 323 324 325 325 302 299 297 297 297 298 311 322 322 322 324 323 323 322 321 322 325 325 325 322 314 316 319 316 307 295 292 293 293 293 292 290 289 292 309 311 309 308 307 308 308 307 308 309 307 306 304 304 303 304 302 302 300 300
312 311 312 313 313 315 319 320 321 322 324 324 324 323 323 322 324 325 324 324 324 324 324 323 323 323 324 324 323 323 323 303 298 297 296 295 295 305 323 321 323 324 324 322 321 323 324 322 322 322 322 318 317 319 316 311 306 304 304 305 305 300 292 291 291 291 299 308 308 306 309 309 307 308 307 306 304 303 302 301 302 301 300 300 302
312 312 312 312 313 313 313 314 316 319 321 321 323 324 324 324 324 324 324 324 324 323 323 323 324 325 325 325 323 322 321 298 297 296 295 293 292 304 323 322 321 320 321 323 322 322 322 322 322 320 320 319 319 316 314 310 308 308 307 307 308 308 310 311 311 311 309 309 309 309 309 309 308 307 307 306 306 304 304 302 302 301 301 303 303
310 311 311 311 311 312 312 312 314 316 318 320 321 321 322 323 323 324 324 325 325 325 325 325 325 325 325 324 323 321 323 294 295 294 294 292 295 319 322 320 319 319 320 321 322 322 321 322 321 320 319 317 302 299 304 310 310 309 308 309 310 309 303 295 292 294 303 307 309 308 308 303 295 303 301 301 301 303 302 302 302 301 300 299 298
308 309 309 310 310 311 312 312 312 313 315 317 318 319 321 322 322 323 323 323 323 323 323 324 325 325 324 323 322 322 320 299 292 293 292 291 302 318 319 319 318 318 318 319 318 318 318 318 319 317 314 312 298 295 297 301 311 310 309 309 308 307 303 300 293 290 290 290 289 289 288 289 290 289 289 288 297 298 298 297 298 300 297 295 297
305 306 307 308 309 310 310 310 311 312 313 313 316 319 320 320 321 322 320 320 321 322 323 322 323 324 323 322 321 322 319 302 291 292 292 292 306 319 317 317 317 317 316 316 315 312 307 299 309 314 310 307 292 295 295 304 311 310 309 308 307 307 306 304 303 300 289 290 290 290 290 290 290 289 290 291 289 293 298 295 298 297 297 297 295
304 304 305 306 307 308 309 310 310 311 311 313 316 317 318 319 319 320 320 321 322 324 322 322 322 321 321 321 315 319 319 303 291 292 293 293 308 320 317 316 315 315 314 312 312 310 308 303 296 304 306 300 291 294 293 301 312 310 310 308 306 306 306 306 306 305 304 303 302 300 298 294 297 300 300 289 291 293 298 298 299 298 296 296 296
304 304 305 306 307 308 309 309 309 310 310 312 313 315 317 318 318 317 318 317 318 320 320 321 321 320 320 320 319 321 319 315 303 292 294 295 298 319 317 314 313 313 313 311 310 309 307 305 298 290 290 289 290 290 291 292 309 310 309 308 308 306 306 306 304 304 304 303 303 304 303 304 303 303 304 302 299 299 300 301 300 299 297 296 297
304 304 304 305 305 306 307 308 309 309 310 310 311 312 315 316 316 315 315 315 316 317 319 321 320 318 317 319 319 321 320 316 306 292 294 295 295 300 316 314 314 312 311 310 309 308 307 305 302 291 289 289 290 290 291 291 295 310 309 308 304 301 300 304 299 291 301 302 302 301 302 302 302 302 301 301 301 301 301 301 301 300 298 296 295
304 303 304 304 304 305 306 307 309 310 310 311 311 311 313 314 316 315 314 314 317 318 318 317 317 316 316 317 319 317 312 308 311 294 292 294 295 293 311 315 314 312 311 310 309 308 306 304 302 293 289 289 290 290 290 292 293 302 298 289 288 290 302 301 302 302 301 301 300 299 299 299 299 300 300 300 300 301 300 300 300 300 300 299 296
302 302 303 303 304 304 305 306 307 309 309 310 310 310 311 313 314 314 314 314 315 315 316 315 314 314 315 315 316 315 314 309 301 304 292 293 293 295 298 308 298 313 311 310 309 307 306 303 297 289 289 289 290 290 291 291 293 295 288 288 289 287 292 301 300 300 300 300 299 298 298 299 299 299 298 299 300 300 299 299 299 299 298 298 298
300 300 301 302 303 303 304 305 306 307 308 309 309 310 310 311 312 313 312 312 311 312 313 314 311 310 310 312 313 313 314 311 298 297 298 291 292 293 294 296 298 311 313 311 309 306 304 302 296 289 289 289 288 289 289 291 293 287 288 287 287 289 299 300 298 300 297 296 297 298 298 298 298 298 297 298 298 299 298 297 296 296 296 297 297
298 298 299 300 302 303 304 304 305 305 306 307 307 307 309 310 310 312 312 311 309 310 311 311 309 309 308 309 310 310 312 311 307 296 291 290 290 291 291 292 293 297 310 309 309 306 295 289 287 288 288 288 287 288 289 288 287 287 287 287 289 299 300 298 299 299 298 297 296 297 297 298 298 298 299 298 297 297 296 296 296 296 296 296 296
297 297 298 299 300 301 302 302 303 304 305 305 307 307 307 309 308 309 310 310 310 310 309 307 306 307 306 307 308 310 310 309 306 302 296 294 293 289 290 291 291 291 296 297 289 288 288 288 287 287 288 291 297 298 297 294 288 288 287 288 300 299 299 299 299 298 296 296 296 295 296 297 297 298 298 296 295 295 295 294 294 294 295 294 294
295 296 297 298 299 300 300 301 301 302 304 304 305 306 306 307 309 308 309 309 310 310 309 307 305 305 305 306 307 308 309 309 307 305 304 303 300 297 298 296 291 292 297 296 293 294 292 293 293 291 291 289 291 291 292 290 291 293 297 298 300 298 299 297 296 296 296 296 295 296 296 297 298 297 296 295 294 295 295 293 293 292 293 293 292
295 295 296 296 297 298 299 293 297 301 302 303 302 303 306 307 306 308 308 308 308 307 305 304 305 307 306 305 305 305 306 307 306 305 304 303 300 300 301 301 303 303 300 300 299 297 296 291 291 296 296 297 296 298 298 299 298 297 299 298 298 296 293 290 291 297 297 297 296 296 295 297 296 296 295 295 294 294 295 294 293 292 292 292 291
294 295 296 296 296 297 297 299 299 300 301 302 302 302 304 306 305 308 310 311 310 308 307 306 307 305 303 307 306 305 306 305 305 298 302 296 300 304 302 302 304 303 298 294 299 298 297 297 296 296 296 294 295 295 298 297 295 297 298 299 298 298 297 296 296 296 296 295 294 294 292 295 295 295 294 293 293 293 294 293 293 292 293 292 290
293 294 295 295 296 296 297 297 299 299 300 300 301 304 290 288 299 308 309 295 292 299 299 306 307 307 304 304 308 309 305 306 296 294 294 293 294 295 296 296 296 299 293 291 295 296 295 296 296 296 295 295 295 294 294 295 294 294 294 290 295 295 293 294 295 295 293 292 293 292 293 292 292 292 293 292 292 293 293 291 292 293 291 291 290
293 293 293 294 294 295 296 296 298 298 300 300 301 300 303 300 285 283 287 289 292 291 293 292 294 298 305 305 304 293 292 292 292 292 292 292 291 291 290 290 290 290 291 295 296 296 296 295 295 295 295 295 294 294 294 294 293 293 293 293 294 293 291 293 294 291 290 291 292 292 293 292 291 291 291 291 291 291 292 293 292 292 291 291 290
291 292 293 293 293 292 295 295 296 296 297 299 300 300 300 301 300 289 287 289 288 288 291 291 292 292 290 295 300 303 291 290 291 291 291 290 290 290 289 289 289 290 290 292 295 295 296 295 295 295 294 294 293 293 294 294 293 293 294 293 293 293 292 292 291 292 291 292 292 291 292 292 291 290 291 290 290 290 290 290 291 290 290 290 290
291 291 292 292 292 292 292 294 294 296 297 297 298 300 300 300 300 300 293 287 287 289 289 290 290 290 290 290 290 293 293 291 290 290 290 289 289 289 289 289 289 289 289 294 296 295 295 295 295 294 295 293 293 294 293 295 293 294 294 293 293 293 294 293 290 293 291 292 291 292 292 291 291 291 290 290 290 289 289 289 290 290 289 289 289
292 291 291 291 291 292 293 293 294 295 296 297 298 299 300 301 301 302 300 298 296 291 288 288 288 288 289 290 290 289 289 289 289 289 289 288 288 288 289 290 288 288 290 295 295 295 296 294 296 297 296 295 293 294 293 293 293 294 293 294 294 295 294 294 293 291 291 292 293 292 292 292 291 291 290 290 290 289 289 288 289 288 288 288 288
291 289 287 288 291 291 291 292 293 294 295 297 297 297 299 300 301 301 301 299 298 298 298 295 289 291 293 289 288 288 289 289 288 289 288 288 288 288 289 292 292 292 295 299 298 298 296 296 295 297 296 294 293 293 292 295 294 293 293 293 293 293 291 290 290 291 291 292 292 292 292 291 291 291 290 289 289 288 288 288 288 288 288 288 288
290 290 291 290 290 290 290 291 291 292 293 295 297 297 298 299 301 300 300 301 300 299 302 297 293 287 288 289 287 288 288 288 287 287 287 287 288 289 292 293 293 293 294 297 298 297 296 297 296 296 296 295 295 294 294 294 293 294 295 293 291 291 290 290 290 291 291 291 292 291 291 291 291 290 290 290 289 288 288 288 288 288 288 288 288
291 290 290 290 290 291 291 291 291 292 290 291 293 297 298 299 299 301 300 301 301 301 301 298 295 292 289 288 288 287 287 287 287 287 287 287 288 292 294 295 295 295 295 295 296 295 296 296 296 296 296 294 295 296 294 294 296 296 292 292 292 290 290 289 290 290 291 291 292 292 291 291 291 290 290 289 289 289 289 289 288 287 287 287 286
293 292 291 291 291 291 291 291 291 288 290 291 293 295 297 299 300 299 298 299 299 299 299 300 294 295 291 290 290 289 288 287 287 287 287 287 290 295 296 295 296 295 295 296 296 297 294 296 297 297 297 297 297 296 295 294 294 293 293 291 290 290 287 288 288 288 289 292 292 292 292 291 291 291 290 289 289 288 288 288 288 287 287 287 287
294 289 287 287 288 290 291 290 290 290 291 291 293 293 294 297 299 298 299 300 299 298 298 300 299 298 294 291 291 290 289 289 288 288 288 290 293 296 297 297 296 296 296 296 295 295 296 294 295 296 297 296 295 295 294 293 294 292 291 291 290 290 289 291 292 292 292 292 292 292 292 292 292 291 290 290 289 289 288 288 288 288 287 287 288
293 294 291 286 290 289 289 288 290 290 290 291 293 294 295 296 297 297 298 299 297 296 297 296 297 300 297 294 291 290 289 288 290 291 291 291 293 296 297 296 294 295 294 293 295 296 293 295 293 294 295 296 294 295 294 293 291 292 291 290 289 289 289 291 292 292 292 291 292 292 291 291 291 291 291 290 289 289 288 288 288 288 288 287 287
294 293 290 289 288 290 289 289 289 290 290 291 294 297 297 296 298 296 298 298 297 297 295 298 299 301 298 295 290 290 294 293 293 293 293 293 294 295 296 295 295 294 294 293 294 295 295 293 293 293 294 293 293 292 292 292 292 291 290 289 289 289 290 291 291 292 291 291 291 291 291 291 291 291 289 289 288 288 288 289 289 289 288 288 288
293 292 291 290 288 289 290 289 290 290 290 292 295 296 295 295 299 299 298 296 296 296 297 297 296 294 289 287 287 287 295 296 296 295 295 296 295 295 295 295 296 295 293 294 293 293 293 292 292 294 293 293 293 293 293 292 290 290 290 289 289 289 290 291 291 291 290 291 291 291 290 290 289 289 289 289 289 289 289 289 289 289 288 288 288
292 293 293 291 291 291 291 291 291 292 292 293 294 293 293 294 296 297 295 294 295 296 295 294 295 293 291 287 287 286 297 296 291 294 295 295 295 294 294 293 295 295 295 295 295 295 294 294 293 294 293 293 292 292 292 291 290 290 290 289 289 288 289 290 291 290 291 290 290 289 289 289 290 290 290 290 289 289 289 288 288 289 289 289 288
292 292 292 291 292 292 294 294 293 292 293 291 292 295 296 295 295 295 295 296 293 292 293 294 293 293 291 289 289 289 293 292 292 292 293 293 293 294 294 294 294 294 294 294 295 295 294 294 293 294 292 293 292 291 291 291 290 290 289 289 288 288 289 289 289 289 288 288 288 288 290 290 289 290 290 290 290 289 289 289 289 289 289 289 288
293 292 292 292 293 293 293 293 292 292 291 293 295 296 295 297 296 294 293 293 295 295 294 293 293 292 291 290 291 292 292 292 291 291 292 292 293 293 293 293 293 292 294 293 293 292 293 293 293 291 291 293 292 291 291 290 290 290 290 288 288 288 288 287 287 287 287 286 287 288 289 290 289 290 290 290 289 289 289 289 289 288 288 288 288
292 292 292 293 293 293 293 294 292 295 295 294 294 295 296 297 297 295 293 293 293 294 293 293 292 291 291 292 292 292 292 292 292 293 293 293 292 292 292 293 293 294 294 294 293 292 293 293 293 292 292 292 290 290 291 290 290 289 289 288 288 288 288 287 286 286 286 286 287 288 288 288 289 289 288 289 290 290 289 289 289 289 289 288 288
291 291 291 292 292 292 292 293 293 294 295 295 295 295 294 296 295 293 291 292 293 292 294 293 292 293 291 292 292 291 290 289 289 290 291 292 292 293 293 293 294 294 293 293 292 292 291 292 292 291 290 290 289 288 289 290 290 290 289 290 289 287 286 285 284 285 285 286 286 286 287 287 288 289 289 290 290 290 289 290 289 288 289 289 289
292 291 290 289 290 291 292 293 292 290 293 293 294 294 293 294 295 294 293 293 293 292 291 291 291 291 290 290 290 289 288 288 289 290 291 291 292 292 292 292 292 293 293 292 292 292 292 291 290 290 289 288 288 288 288 289 289 289 288 288 287 284 281 280 283 284 285 285 284 284 285 287 289 290 290 290 290 290 290 290 289 289 289 289 289
293 292 291 289 288 288 289 289 289 289 289 290 290 291 291 292 292 293 293 292 292 291 291 290 290 290 289 288 288 288 289 289 290 290 291 290 291 291 292 292 291 292 292 292 291 290 290 290 289 289 289 289 288 287 287 287 287 287 286 287 284 280 280 279 281 283 282 282 284 285 286 287 288 290 290 290 290 290 290 290 289 289 289 289 290
294 292 292 291 290 289 288 288 288 288 288 289 289 289 289 289 289 290 290 290 290 290 291 291 290 289 289 288 288 289 289 289 289 290 290 290 291 291 291 291 291 291 291 290 291 290 290 289 288 288 288 288 287 287 288 287 286 286 286 284 281 280 280 279 280 280 281 282 283 284 286 287 289 290 291 291 291 290 290 290 289 289 289 289 289
293 293 292 291 291 291 290 289 288 287 288 288 288 288 287 288 288 288 288 288 288 288 288 288 289 288 288 289 289 289 289 290 291 291 291 291 291 291 291 290 290 289 289 289 290 290 289 289 290 289 288 287 287 287 287 287 287 285 282 280 280 280 279 279 280 280 280 280 282 284 287 289 289 290 291 291 291 290 289 289 289 289 289 290 289
Wind_Speed
8 7 7 7 8 9 9 8 7 6 6 6 7 7 7 7 7 6 7 6 7 7 7 7 7 7 8 7 7 6 7 6 5 5 5 5 5 6 6 6 6 6 6 5 5 5 5 6 5 4 2 3 4 3 4 4 3 3 4 4 4 3 2 4 5 6 4 2 2 3 2 2 3 1 2 1 1 3 2 2 0 1 2 1 6
6 6 5 5 7 8 8 6 6 5 7 6 6 7 7 7 7 6 6 6 7 7 8 7 6 7 7 7 7 7 6 6 5 5 5 5 5 3 4 5 5 6 4 5 4 3 3 4 5 4 3 3 3 5 5 4 4 4 3 3 4 3 3 2 4 4 5 3 3 3 3 2 1 2 2 1 0 2 1 1 2 2 2 4 1
4 3 3 3 5 6 7 6 6 6 6 6 6 7 7 7 7 7 6 5 6 6 7 8 8 8 7 7 7 7 7 7 5 5 5 5 5 4 3 3 4 4 4 4 4 4 3 3 3 3 2 3 2 3 2 2 2 4 3 3 4 3 3 2 1 4 4 4 3 4 2 2 3 2 1 1 2 3 3 1 2 1 1 2 4
3 3 3 3 4 5 5 5 5 5 6 5 6 7 7 7 7 7 7 6 6 5 6 8 8 8 8 8 7 7 7 6 6 6 6 6 5 6 5 3 3 3 3 4 4 4 3 3 3 2 2 3 2 3 2 2 1 4 4 4 4 4 3 2 2 2 2 3 2 1 3 2 4 3 1 3 3 3 3 2 3 2 2 4 4
3 3 4 4 4 4 4 4 4 5 5 5 7 7 8 8 7 8 8 8 7 7 6 7 8 8 7 9 8 8 7 7 7 6 5 5 5 5 5 5 4 3 2 2 2 2 3 3 3 3 2 2 3 3 2 2 2 3 2 3 3 3 2 1 2 1 0 2 3 2 1 1 1 0 1 4 2 2 2 3 3 3 3 3 5
2 2 3 4 4 4 4 4 5 5 6 6 7 7 7 8 8 7 8 8 9 8 8 7 7 8 8 8 9 9 8 7 7 7 7 6 5 5 4 5 5 4 5 4 4 3 3 2 3 3 3 3 3 2 1 3 1 2 2 1 3 3 2 2 1 1 1 1 2 3 1 1 1 1 2 3 4 4 4 5 5 3 3 5 5
4 3 2 1 2 4 4 5 5 5 6 7 6 7 7 8 8 8 8 8 9 8 8 8 7 8 9 9 9 9 9 8 7 7 7 6 6 5 5 4 4 3 4 5 5 5 5 5 4 4 4 2 1 2 3 3 2 3 2 1 1 3 3 2 1 1 1 1 1 1 1 3 1 3 1 2 2 3 3 6 7 6 5 6 7
4 4 3 1 1 1 2 2 3 5 5 6 7 7 7 7 8 8 8 8 9 9 10 9 9 8 8 9 9 8 8 8 8 7 6 6 5 4 4 4 4 5 5 5 6 6 7 7 7 7 7 8 8 7 5 4 4 5 3 3 2 3 3 2 2 2 2 2 3 2 1 3 2 2 2 2 4 4 5 6 7 7 7 7 7
4 4 3 1 2 1 0 1 2 3 4 6 7 7 7 7 8 8 9 8 7 9 10 11 11 10 9 9 8 7 6 6 6 7 7 6 4 4 3 3 4 4 5 5 6 6 6 6 7 8 8 5 3 3 4 5 4 4 4 3 3 3 3 3 3 3 4 4 4 3 5 6 6 5 6 5 5 6 5 5 6 7 8 8 8
5 4 3 3 2 2 1 1 2 3 4 5 5 6 7 7 8 9 9 9 8 8 9 10 10 10 10 9 8 7 6 5 5 6 3 4 4 3 3 4 5 5 5 5 5 5 6 6 6 8 6 7 7 6 5 3 5 4 1 4 6 4 3 4 4 4 4 5 5 4 6 7 6 5 5 4 4 4 5 6 7 8 8 8 8
4 4 3 3 2 1 1 1 1 3 3 4 4 5 6 6 7 8 8 8 8 7 8 9 9 9 9 9 9 7 6 5 10 11 9 5 3 2 2 3 3 4 5 4 4 5 6 7 6 8 7 7 7 9 7 5 4 2 5 8 6 3 3 4 4 2 5 4 4 4 4 4 6 7 7 4 5 5 6 7 7 8 8 9 10
4 4 3 2 3 2 2 1 2 2 3 3 4 5 5 5 6 7 7 8 7 7 8 9 9 9 8 9 8 8 7 10 12 11 12 11 7 4 3 2 2 4 5 5 6 5 4 6 4 4 5 6 6 7 7 5 4 5 6 6 7 7 6 5 2 2 1 4 5 5 4 6 6 7 6 5 6 7 7 7 7 7 8 9 9
5 5 4 4 3 2 1 1 2 2 3 4 4 4 6 6 6 7 8 8 7 9 10 10 10 10 10 11 10 8 7 12 15 12 11 12 11 7 4 4 4 3 5 5 3 5 9 4 3 3 3 9 6 6 6 6 7 8 9 9 9 9 9 9 10 7 4 4 4 4 4 4 6 7 3 4 4 7 7 7 7 7 8 9 9
5 5 5 5 4 3 2 1 2 2 3 4 4 5 6 6 5 6 6 7 9 9 10 11 11 11 11 11 11 9 9 12 13 12 11 11 11 7 4 4 2 3 5 5 7 8 4 3 4 4 4 6 5 6 6 7 8 7 7 6 5 6 6 7 5 4 4 3 3 4 3 3 5 4 2 2 5 6 7 8 8 9 9 10 12
5 5 5 5 5 4 4 2 2 2 3 3 4 6 6 6 6 6 6 6 7 7 9 10 9 10 10 10 10 9 8 12 14 10 9 11 10 7 5 4 1 4 7 4 4 4 3 3 3 2 4 5 4 6 7 8 8 8 8 7 6 6 4 3 2 1 1 1 1 2 2 2 3 3 3 3 4 5 6 8 9 10 10 11 11
4 4 4 4 5 4 4 4 4 4 3 3 4 5 7 7 8 7 6 7 7 7 7 7 8 9 9 8 9 9 5 11 12 11 10 10 11 5 6 5 5 5 4 4 4 3 3 3 3 4 4 5 7 8 8 8 9 9 9 8 7 5 5 5 4 7 7 5 4 4 4 6 6 4 4 5 5 6 7 8 9 9 10 9 10
4 4 4 4 5 4 4 4 4 5 5 5 5 4 5 6 6 6 6 7 7 8 8 8 7 7 7 7 8 8 6 6 7 9 10 11 9 8 8 6 6 7 5 4 4 4 3 1 4 4 6 6 7 7 9 10 9 9 8 7 6 5 5 4 5 6 7 7 6 5 4 2 0 1 2 3 4 5 7 8 8 7 9 10 10
7 7 7 7 6 5 5 5 5 4 5 6 6 5 5 5 5 5 5 5 6 7 7 7 7 6 7 7 8 8 6 8 10 9 11 15 12 8 8 8 8 7 6 5 5 5 7 12 7 5 7 7 7 8 7 8 7 7 7 7 6 5 5 5 4 4 4 3 3 3 6 6 7 6 7 7 7 6 6 8 8 8 9 9 10
8 8 8 7 7 7 7 6 6 6 6 6 6 7 7 6 5 5 5 5 5 5 6 6 6 6 6 8 3 7 6 7 9 10 11 14 10 6 6 7 7 7 7 7 6 6 6 8 13 9 8 9 7 5 4 5 5 5 6 5 4 4 4 5 4 4 5 5 6 7 7 8 8 7 8 13 11 10 8 9 8 8 9 9 10
9 8 8 8 7 7 6 7 7 7 7 6 6 6 7 6 6 6 6 6 5 6 5 5 6 6 6 8 7 8 7 7 8 10 11 10 8 3 7 7 7 8 7 8 7 7 7 7 8 10 11 9 9 9 8 10 1 5 4 5 5 4 3 2 3 3 2 3 4 5 7 6 6 6 6 7 9 10 9 7 8 7 8 9 9
8 9 9 9 8 8 7 7 7 8 7 7 6 6 6 7 6 7 7 6 5 6 6 6 6 6 7 8 9 8 6 7 6 9 9 8 4 5 6 6 7 7 7 7 7 7 7 7 7 7 10 11 10 10 10 11 10 3 3 5 6 7 3 2 4 3 4 4 5 6 6 6 6 6 6 6 6 6 6 7 8 9 10 11 11
8 9 9 10 10 9 9 8 7 7 7 7 6 6 6 6 6 7 7 6 7 7 8 8 8 7 7 7 7 6 6 6 9 6 7 7 6 4 2 8 6 8 7 7 7 7 7 7 7 7 9 11 11 11 11 11 10 7 8 8 7 6 1 2 2 3 4 4 5 5 6 5 6 5 5 6 6 5 6 8 10 9 10 12 12
10 9 9 10 10 10 10 10 8 6 7 7 7 7 6 6 7 8 8 8 8 9 10 9 9 9 8 7 7 6 7 6 7 8 6 6 3 3 4 7 3 6 7 7 7 8 8 9 8 9 10 10 11 11 11 11 9 8 8 8 6 1 5 2 2 4 4 4 5 6 5 5 5 5 5 5 5 5 7 9 10 11 11 11 11
10 10 10 10 10 10 11 10 9 8 8 8 8 8 7 6 7 8 9 9 9 10 9 9 10 10 9 7 6 7 7 7 5 5 7 6 7 5 8 8 2 2 6 6 7 8 9 9 10 11 11 11 11 10 10 10 8 8 6 5 4 5 4 2 3 2 4 5 5 5 5 5 5 5 5 5 6 8 9 9 9 9 10 10 11
10 11 11 11 11 10 10 10 10 10 9 9 9 9 9 7 7 8 9 10 9 9 9 10 10 9 8 8 7 7 7 7 7 6 6 6 7 9 10 9 7 5 7 7 7 7 13 17 15 12 13 13 14 13 11 10 8 6 6 6 6 5 2 2 2 3 4 4 4 5 5 5 5 5 6 8 10 9 9 8 8 9 10 10 11
11 11 11 11 11 12 12 12 12 12 11 10 9 9 9 8 8 9 8 8 8 9 10 10 10 10 9 9 8 7 7 7 7 7 6 8 7 8 9 11 12 14 14 12 16 18 17 15 14 14 13 12 8 6 6 6 7 8 7 7 6 1 1 2 2 3 4 4 4 5 5 5 5 6 9 8 8 9 9 9 9 9 9 10 10
11 11 12 12 12 13 13 12 11 11 12 11 10 9 9 9 8 9 9 9 6 3 2 5 9 11 10 9 9 8 8 8 8 7 7 7 7 8 8 9 13 14 11 10 12 11 12 11 8 7 8 7 9 10 8 8 8 7 6 4 1 0 0 1 3 3 3 4 5 5 5 6 6 7 8 8 9 8 8 9 9 9 9 10 10
13 12 12 12 12 12 12 12 12 11 11 11 11 11 10 10 11 10 10 11 11 9 6 4 5 6 8 7 8 8 8 8 9 9 9 8 8 9 9 9 9 9 10 10 10 11 10 9 9 7 7 6 7 6 7 5 3 1 1 1 1 2 1 2 4 3 3 4 5 5 6 7 8 8 9 9 8 9 9 9 9 10 10 10 10
14 15 14 13 11 11 12 12 12 12 12 13 13 13 12 11 12 11 10 10 10 9 8 7 6 2 6 1 7 8 8 9 9 8 10 11 10 11 10 10 9 9 10 13 12 10 9 9 6 7 6 5 4 3 4 3 1 2 1 1 1 2 1 1 2 3 4 5 6 6 5 8 8 8 8 8 9 9 9 9 10 10 10 9 10
14 14 13 12 13 12 11 11 12 12 12 12 12 9 7 4 3 4 5 8 6 9 12 10 7 4 3 6 6 4 5 5 10 13 11 12 11 12 11 11 10 11 15 15 12 9 7 6 5 5 4 3 3 2 2 2 2 2 2 1 2 1 2 2 2 3 4 4 4 4 6 7 7 8 9 9 9 9 9 10 10 10 10 9 10
12 13 12 13 12 12 13 12 11 11 11 12 12 13 9 2 2 2 3 6 5 4 6 7 10 15 9 9 7 1 3 5 13 13 13 11 10 12 13 15 18 19 17 10 7 6 6 5 4 4 3 3 2 2 2 2 2 2 1 1 0 0 1 2 2 3 3 4 4 5 6 6 7 7 8 9 9 10 10 9 9 9 10 10 11
13 12 12 12 12 11 12 13 13 12 12 12 13 12 13 10 5 6 7 3 2 3 3 7 7 7 7 8 7 3 5 6 11 13 14 14 14 14 16 18 18 17 15 10 6 6 5 5 4 4 3 3 2 2 2 1 1 1 1 1 0 0 1 1 3 5 3 3 4 5 6 6 7 8 8 8 8 9 10 9 8 9 9 10 10
14 14 13 13 12 13 12 13 12 13 12 12 13 13 12 12 11 6 4 8 5 2 3 3 6 5 4 5 5 5 8 12 15 15 16 16 16 16 17 18 17 14 10 5 5 6 5 4 4 3 4 2 2 2 2 3 1 0 0 0 1 0 1 2 2 4 2 3 5 6 6 7 7 7 7 7 8 9 9 9 9 9 9 9 9
15 14 13 13 13 12 12 12 12 12 13 12 12 13 13 12 12 10 9 7 5 5 5 5 8 10 6 5 7 8 13 15 17 17 17 17 18 19 16 13 12 11 5 4 5 5 5 5 5 5 4 3 2 2 2 2 1 1 0 0 2 2 3 4 4 2 3 4 5 6 7 7 6 7 8 8 8 8 9 8 9 9 9 9 10
14 14 15 13 12 13 11 11 11 11 11 11 11 12 13 12 11 11 10 10 10 8 8 5 4 2 8 8 9 10 14 16 17 18 19 20 20 18 16 11 8 5 5 6 7 7 6 5 4 5 5 3 3 3 2 3 1 0 0 0 2 2 2 2 3 4 3 4 6 6 6 7 7 7 7 8 9 9 9 9 9 9 9 9 9
13 13 13 12 10 11 11 10 10 11 10 10 11 11 11 12 11 11 10 9 10 10 7 7 6 4 8 12 13 12 14 14 12 9 12 21 21 20 11 10 9 8 6 7 7 7 6 6 6 5 5 5 5 3 2 2 2 1 1 1 1 2 2 2 3 4 4 5 5 6 7 6 6 7 7 8 8 9 9 9 9 9 9 10 9
12 12 12 11 10 8 9 11 10 11 10 9 11 11 11 11 11 11 10 9 9 7 7 8 8 7 6 6 12 11 11 10 13 21 17 16 17 10 7 9 8 8 7 5 7 7 6 6 5 5 5 4 5 4 2 2 1 1 0 1 2 2 2 2 3 3 4 4 6 6 6 6 7 7 8 9 9 9 10 10 10 9 9 10 10
11 10 10 10 10 10 9 9 9 8 8 9 11 11 11 10 10 10 8 6 5 4 5 8 9 8 8 7 9 9 11 15 15 8 12 12 6 7 7 7 8 7 6 6 7 6 4 6 5 5 5 5 5 4 3 1 0 0 0 1 1 1 1 4 4 6 7 5 6 6 6 6 7 7 8 9 9 10 10 10 10 10 10 10 9
8 6 8 7 8 7 7 7 7 8 8 9 10 11 11 9 9 8 8 5 5 5 4 8 7 7 9 10 10 10 12 10 9 10 8 8 8 7 6 6 6 6 7 7 7 6 5 4 4 4 5 5 4 4 2 1 0 0 1 1 1 2 1 3 2 3 3 5 6 6 6 7 8 8 8 9 9 9 10 10 10 10 10 10 10
9 7 2 5 7 7 6 5 6 7 8 8 9 11 10 8 6 7 7 5 5 4 4 4 6 7 9 11 11 12 10 9 9 10 11 11 10 7 6 6 6 6 5 5 4 4 4 4 4 3 4 5 4 3 2 1 0 0 1 2 2 2 2 2 2 3 3 5 6 7 7 7 8 8 9 8 8 9 9 10 10 10 10 10 10
7 6 6 4 4 4 5 5 6 6 7 8 9 9 8 7 6 5 5 5 4 4 4 7 6 8 10 10 12 10 8 10 10 10 10 10 8 6 6 6 6 6 5 5 4 4 3 3 3 3 3 3 3 2 1 1 0 1 2 2 2 2 3 2 2 2 4 4 5 7 8 8 8 9 9 9 9 10 9 9 9 9 9 9 10
6 5 5 3 1 4 4 5 5 6 7 6 5 2 1 3 7 4 3 3 3 4 4 4 6 6 10 14 9 3 7 9 9 11 11 11 7 7 7 7 6 6 5 4 4 4 4 4 4 3 3 3 2 2 1 1 1 2 2 2 2 2 3 3 2 3 3 4 5 6 6 7 8 9 9 10 9 9 9 9 9 9 9 10 9
6 5 4 3 1 3 4 4 5 4 4 2 0 2 2 2 3 4 5 6 6 6 5 5 6 6 7 9 7 10 1 6 10 10 8 7 7 7 7 7 6 6 6 5 4 3 3 3 3 3 4 3 2 2 1 2 2 2 2 3 3 3 3 3 3 3 4 5 5 5 7 8 8 8 8 8 9 9 9 9 9 9 9 9 9
6 6 4 4 2 1 1 2 3 3 2 4 3 2 5 6 4 2 5 5 6 4 3 5 6 7 7 8 6 2 4 6 7 7 6 7 8 8 7 7 6 6 5 4 4 3 3 3 3 4 4 3 3 2 2 2 2 2 2 3 3 3 3 3 4 4 4 5 5 6 8 8 9 8 8 8 9 9 9 9 10 9 10 9 9
7 6 5 4 4 4 5 5 5 5 4 5 3 5 6 4 5 5 7 5 6 5 5 5 6 7 9 8 6 6 7 8 7 7 7 7 7 7 6 7 6 6 5 4 4 3 3 3 4 4 3 3 2 1 2 3 2 2 2 2 3 3 3 3 3 4 4 5 5 6 8 9 9 8 8 8 9 10 10 10 10 11 10 9 9
7 7 7 5 6 7 6 5 4 5 5 3 4 5 5 5 5 6 6 6 6 5 5 5 6 7 7 7 7 8 7 8 7 5 8 6 6 6 6 6 6 5 5 5 4 3 3 4 4 4 3 3 2 2 2 2 1 2 1 1 2 2 2 3 4 4 5 5 6 6 7 8 8 8 9 9 9 9 10 10 10 10 9 9 9
8 8 8 8 7 6 6 7 7 7 6 6 4 4 3 6 6 7 8 8 7 7 7 5 6 7 7 7 7 7 7 7 7 4 5 6 6 6 6 6 6 5 5 5 4 4 4 4 4 4 4 3 3 2 2 2 1 1 1 1 1 2 3 5 5 5 5 6 6 7 7 7 8 8 9 9 10 10 10 10 10 10 9 9 9
8 9 9 9 8 8 8 7 7 7 7 7 7 6 5 4 4 5 6 7 7 7 8 9 9 9 9 8 7 7 7 7 6 5 5 5 5 6 6 6 5 5 5 5 4 4 4 4 4 3 3 3 2 2 2 1 1 2 2 1 3 5 6 7 6 6 5 6 7 8 8 7 7 8 9 10 10 10 10 10 10 9 9 9 8
9 9 9 9 9 9 9 9 9 8 8 7 8 8 8 7 7 6 7 7 8 8 9 9 8 8 9 8 7 7 7 7 6 5 5 5 5 5 5 5 5 5 4 5 5 5 4 4 3 3 2 3 3 2 2 2 2 2 2 2 5 8 9 9 7 6 9 8 7 8 8 8 8 8 9 9 9 9 9 9 9 9 9 8 8
9 9 9 9 9 8 8 7 8 8 8 8 7 7 8 8 8 8 8 9 9 9 10 9 8 8 8 7 7 7 7 6 6 5 5 5 5 5 5 5 5 4 4 4 4 4 4 4 3 3 3 3 2 1 1 2 2 2 2 4 8 9 10 11 10 9 8 7 8 7 7 8 8 8 8 9 9 9 9 9 9 8 8 9 8
8 8 8 9 9 9 8 9 9 9 8 8 7 7 8 8 8 8 9 9 8 8 8 8 8 8 8 7 7 7 7 8 7 7 6 5 5 5 5 6 5 5 5 4 4 4 3 2 2 2 3 2 2 1 1 1 2 4 6 8 8 9 11 11 9 10 12 10 8 7 7 7 8 8 8 8 9 9 8 9 9 9 8 8 8
Wind_Direction
204 203 190 190 170 173 176 179 163 156 153 162 151 152 150 156 163 169 167 169 158 161 157 154 149 145 141 141 134 130 123 122 121 122 120 122 116 121 137 135 132 127 125 129 131 142 131 120 119 115 116 106 113 122 105 99 96 81 84 93 85 62 58 101 114 117 115 112 135 101 83 238 110 23 87 107 187 165 206 61 330 333 3 277 139
192 192 185 189 177 176 180 172 165 160 151 156 153 150 151 162 161 168 173 171 168 162 157 153 153 152 148 142 141 135 133 123 131 124 120 119 116 121 135 138 123 119 137 130 119 112 132 131 126 124 123 116 152 144 136 148 141 134 115 93 93 82 20 72 116 129 128 158 149 140 130 273 154 77 64 355 48 302 252 186 196 288 18 333 278
156 177 178 179 174 181 180 176 177 160 154 156 154 155 155 158 167 164 178 173 180 172 157 161 160 155 151 150 147 146 143 139 136 137 132 138 133 129 126 120 126 135 143 137 139 120 130 125 130 129 143 144 165 79 114 156 134 91 95 95 98 97 88 57 107 115 145 129 161 170 135 103 324 98 156 151 335 308 290 315 298 291 297 318 311
151 167 166 161 172 179 181 166 167 167 171 173 162 162 162 162 173 174 172 179 183 179 168 172 166 163 158 156 154 155 151 150 152 152 148 143 148 145 149 146 151 158 154 158 145 153 150 156 143 153 165 158 162 136 168 121 144 114 131 122 122 106 90 101 47 78 127 145 156 228 118 193 186 190 221 218 209 247 301 304 278 261 305 328 317
151 157 159 161 167 182 171 170 173 179 194 201 188 172 166 164 173 181 176 176 183 180 184 182 175 170 166 164 158 159 159 159 156 154 148 160 156 154 164 161 162 171 166 148 145 187 166 189 161 161 183 182 170 196 145 195 176 142 154 137 126 109 125 63 75 83 152 123 128 78 214 193 62 324 346 336 318 281 269 320 302 301 293 307 303
111 142 155 171 172 183 187 191 194 198 209 218 202 189 177 173 171 183 184 182 176 183 186 186 186 175 175 169 162 161 160 159 162 163 159 165 168 170 174 171 181 183 177 197 190 196 214 205 182 189 192 204 200 190 172 202 199 206 169 220 112 111 97 111 107 53 296 137 173 170 183 327 241 228 321 334 327 322 330 332 323 275 303 312 313
108 106 85 145 199 200 205 211 213 222 219 217 203 197 191 183 180 184 186 186 178 178 185 185 188 186 178 170 169 166 161 163 159 159 163 164 166 165 170 174 178 185 191 197 200 202 209 207 202 197 201 194 15 261 234 225 224 242 178 188 193 138 188 185 173 173 237 216 192 298 230 167 299 315 107 337 267 294 326 337 324 331 326 326 316
84 87 95 105 197 204 223 232 237 229 229 216 208 207 200 200 202 192 189 191 192 188 181 187 184 190 176 175 169 165 162 163 161 162 165 158 160 168 173 186 194 190 200 211 208 210 211 211 207 203 202 202 204 211 198 243 231 224 191 211 197 186 215 182 220 237 228 258 302 283 276 305 240 243 291 273 332 327 1 335 320 322 322 322 311
61 72 78 63 53 16 73 64 260 235 227 225 214 208 209 213 219 213 204 202 202 202 194 187 185 186 176 174 165 163 168 164 162 163 162 164 170 179 191 208 223 225 222 221 219 222 225 220 218 217 211 207 193 257 348 344 245 222 204 207 217 223 236 242 235 264 277 289 267 246 286 297 303 311 312 330 337 338 329 315 308 312 318 312 315
54 44 44 47 37 35 18 184 225 229 226 224 223 225 226 223 219 216 213 212 206 210 205 197 192 185 176 172 163 161 170 174 131 98 85 145 171 186 192 226 239 246 249 253 243 233 234 230 218 215 193 172 174 205 238 283 313 332 249 195 235 235 239 255 262 276 302 289 290 318 296 295 311 316 320 331 336 318 317 319 312 316 311 310 307
62 55 52 43 20 3 348 304 229 223 223 225 217 226 226 221 220 220 219 218 212 205 205 194 192 190 187 173 169 170 175 176 154 160 157 166 183 184 229 237 247 246 251 249 248 252 238 229 229 175 170 159 189 197 212 202 231 330 29 51 35 351 262 241 258 300 290 289 302 294 296 305 297 308 309 327 329 330 321 315 309 309 313 318 313
60 57 51 45 33 16 4 336 276 262 245 237 237 239 237 233 231 232 230 226 217 213 210 209 206 207 211 203 189 183 186 142 174 180 173 169 183 183 201 232 246 264 264 257 251 258 267 250 214 179 202 199 220 186 179 169 162 127 97 81 68 60 47 13 319 253 275 293 295 289 300 298 318 308 308 330 332 320 310 305 301 307 309 304 302
62 64 66 72 71 44 323 296 288 254 240 244 240 246 238 231 233 230 232 234 234 231 226 222 224 220 219 223 221 201 188 161 182 189 174 171 174 178 182 204 213 224 244 246 281 273 247 224 202 192 135 124 201 195 172 142 104 102 107 97 68 56 45 39 32 13 340 302 285 292 295 331 313 315 20 338 324 300 302 298 309 308 302 296 295
56 54 49 49 46 50 35 356 306 285 271 256 242 233 235 225 223 229 235 235 234 235 233 230 231 231 229 232 231 222 222 173 185 194 178 170 165 175 172 175 204 260 251 229 226 235 245 235 230 195 157 177 197 186 158 150 149 147 155 163 140 105 90 85 80 46 345 323 315 301 0 342 319 351 0 325 303 301 305 300 306 302 298 294 300
42 35 35 27 25 15 356 3 332 328 304 281 260 247 235 225 219 221 223 228 231 234 236 233 231 229 229 229 231 214 212 155 189 198 166 161 158 177 148 122 139 241 248 247 242 234 226 217 237 211 158 174 156 151 152 156 159 163 167 163 157 162 130 108 58 28 139 237 316 333 327 318 317 324 300 299 296 297 299 298 295 289 287 284 276
25 20 12 19 12 7 351 340 325 303 284 269 257 248 242 239 231 220 231 233 227 226 227 229 227 225 224 223 228 223 178 162 174 175 161 153 152 151 153 151 186 217 211 208 196 181 179 176 168 150 143 134 95 131 159 161 161 162 161 155 142 114 81 68 43 34 29 24 24 16 24 40 20 10 5 332 305 296 292 285 278 271 272 280 287
10 9 359 6 2 352 347 333 325 303 295 285 273 264 249 237 236 233 229 230 229 224 229 229 227 223 217 215 208 210 158 136 161 165 164 164 173 170 166 159 161 186 179 157 142 99 77 83 141 136 133 121 122 143 157 172 157 162 160 156 149 145 135 129 89 66 60 64 61 61 54 47 57 181 245 274 289 311 298 289 282 293 296 292 290
359 356 352 347 337 335 331 325 317 310 286 275 272 268 258 247 242 225 231 228 224 223 221 223 224 222 214 212 204 204 164 159 171 176 175 180 209 171 164 167 167 156 144 128 110 93 56 21 1 124 119 126 134 139 162 187 162 161 160 156 166 167 145 145 158 130 140 167 169 192 195 194 204 218 228 214 217 252 277 284 300 301 288 285 288
344 344 339 336 331 326 319 318 313 310 305 294 284 268 253 248 244 231 227 226 218 214 209 208 208 207 209 208 159 206 177 143 166 178 189 193 226 168 171 151 155 149 141 129 116 110 93 56 32 45 89 110 114 98 14 304 163 161 159 182 185 186 146 163 177 182 184 199 193 195 208 202 218 228 216 196 203 211 252 267 282 283 286 290 292
328 324 323 322 319 314 309 306 305 300 299 304 299 284 267 249 232 230 228 226 203 202 198 205 192 197 183 198 183 204 157 153 157 172 188 201 243 239 162 159 151 148 148 137 130 115 108 99 70 61 84 85 76 60 41 6 112 149 180 204 222 205 141 152 42 346 298 277 291 281 285 278 268 259 268 200 201 217 240 263 277 284 284 285 285
315 315 312 308 306 308 310 306 306 302 294 294 295 286 272 259 239 229 228 228 210 193 188 180 166 161 163 175 171 166 163 149 151 173 183 191 205 252 161 160 153 154 145 145 143 139 131 112 105 72 84 85 83 72 58 38 18 77 45 57 47 47 358 173 133 228 266 272 269 266 264 263 257 259 256 259 263 270 268 269 282 282 288 289 291
307 305 300 300 302 302 301 302 303 297 292 284 281 277 265 253 251 238 234 223 197 181 183 180 171 162 151 159 154 131 86 107 152 175 184 183 201 348 271 159 162 155 153 153 143 137 127 125 119 92 89 89 85 81 71 63 57 78 72 77 55 32 336 329 265 241 269 268 279 284 283 281 283 285 287 286 285 277 289 292 287 283 279 291 294
296 294 295 295 294 292 291 290 289 288 287 280 273 272 267 248 239 243 240 229 212 200 185 181 174 169 164 158 144 140 139 116 130 152 161 169 153 52 4 117 66 166 158 150 138 128 121 111 102 101 100 97 92 91 94 97 90 90 98 85 85 43 273 245 342 285 276 290 294 288 287 285 290 297 298 300 305 307 296 295 298 298 297 286 284
289 285 280 279 279 280 280 280 278 276 276 275 266 261 257 251 241 232 230 228 218 210 201 184 180 169 167 154 146 149 151 140 105 129 152 153 133 110 100 100 2 202 154 145 133 128 131 128 124 123 110 101 89 76 65 67 92 109 106 128 176 238 259 249 244 270 285 271 273 282 296 308 300 293 306 312 308 312 305 301 293 287 282 285 285
289 281 276 272 270 270 271 272 273 271 269 267 265 257 247 237 240 231 227 227 223 216 206 193 190 178 168 154 158 155 153 144 139 97 102 122 124 120 111 102 82 88 129 131 122 102 95 107 121 122 115 107 106 103 95 99 113 123 154 192 222 232 236 295 310 294 284 289 296 306 299 297 302 300 304 310 313 303 289 285 288 289 287 285 284
297 290 284 276 272 268 264 264 264 262 261 260 259 258 255 237 227 225 216 223 224 218 211 204 199 182 171 172 168 161 153 149 139 132 137 123 110 102 107 95 77 61 66 84 91 105 113 117 117 120 124 133 145 139 130 130 154 173 196 224 233 205 301 290 287 287 300 312 312 304 307 309 311 323 316 303 295 298 302 301 300 298 297 297 296
292 291 286 282 273 266 262 260 257 254 253 250 248 246 244 240 230 217 204 205 201 211 243 225 213 199 192 172 166 163 166 160 153 152 154 145 137 132 117 102 103 103 104 113 112 110 123 130 124 105 92 75 71 92 119 148 178 194 197 203 125 119 132 11 340 311 308 311 314 314 313 311 306 299 304 306 301 300 302 301 298 296 298 295 294
291 290 289 289 287 282 274 260 256 257 255 252 250 246 238 235 233 220 215 211 205 198 195 243 268 236 198 165 161 164 168 164 163 165 162 152 150 154 147 145 152 149 136 136 134 131 129 112 120 135 139 149 157 173 175 184 185 181 183 139 149 100 118 187 240 255 277 311 309 307 311 311 312 316 313 308 305 303 304 302 301 298 297 297 293
286 286 287 282 277 279 277 273 264 256 250 248 245 245 242 234 233 228 224 223 217 197 176 199 215 99 353 285 174 170 171 170 173 175 165 162 161 162 161 163 159 155 140 132 133 140 143 154 158 161 169 175 175 178 164 170 152 130 143 239 178 195 217 305 321 330 333 320 317 320 310 314 318 317 310 306 305 307 307 305 302 298 297 293 291
282 280 281 282 281 274 269 273 266 259 256 251 251 236 42 5 338 296 252 43 59 170 175 203 207 130 165 267 282 163 190 184 150 150 151 162 170 158 158 156 141 127 126 141 147 149 163 164 164 167 164 171 177 171 175 169 172 171 141 96 252 31 351 312 306 337 335 310 307 303 311 318 310 310 308 307 306 304 305 304 299 298 295 294 293
279 276 275 274 277 282 278 271 276 275 261 250 245 246 228 155 38 25 334 325 353 55 152 122 141 161 172 201 232 25 35 114 146 146 140 139 125 115 111 109 115 127 140 151 159 157 158 163 162 164 170 171 175 159 151 173 175 179 154 165 200 182 237 286 342 324 310 309 306 304 315 318 312 309 308 305 305 304 305 302 298 297 295 296 295
278 275 271 269 270 268 268 270 264 260 267 265 251 239 241 224 165 77 49 340 289 233 205 163 171 176 199 202 228 173 77 126 147 135 132 127 124 121 120 124 133 142 162 177 155 159 163 163 164 164 168 171 156 144 169 158 145 169 188 207 183 28 321 308 353 309 309 313 322 323 320 314 311 308 306 304 304 301 303 304 303 301 300 298 296
275 273 269 268 267 265 264 265 268 265 259 258 253 246 237 233 219 171 114 72 48 100 160 162 164 187 210 240 235 277 169 163 152 143 138 132 128 131 132 137 143 151 166 191 161 161 159 160 160 157 168 166 149 165 156 154 153 145 134 343 305 331 316 359 274 281 308 313 308 314 314 312 311 311 307 306 306 305 306 303 302 302 300 297 293
274 271 266 262 259 260 259 262 262 261 257 254 253 244 239 235 235 215 166 153 132 91 79 123 143 130 130 166 177 140 140 151 149 146 140 136 134 134 134 138 144 166 218 180 162 158 158 160 159 162 163 147 152 146 161 157 146 142 134 279 309 324 339 327 320 329 318 312 316 321 315 317 317 312 310 309 308 305 303 304 304 300 297 295 295
275 268 260 257 258 257 257 259 258 262 265 261 252 245 239 236 232 227 210 182 182 181 170 141 111 107 138 123 127 140 148 151 153 153 144 138 134 130 124 131 149 182 232 196 169 165 158 158 157 153 151 153 158 158 158 161 145 145 204 355 324 342 332 329 327 326 320 312 317 319 324 318 313 314 314 312 312 310 307 304 299 297 297 297 296
273 269 265 253 243 246 247 248 255 254 259 263 265 258 241 232 228 227 225 213 202 209 178 140 131 92 138 135 131 140 140 134 120 109 137 136 138 139 144 156 161 175 186 176 167 155 154 151 147 150 149 154 153 159 154 149 167 189 19 357 330 335 331 332 331 338 330 313 322 329 328 318 321 317 312 310 307 305 304 301 297 295 291 289 290
273 267 260 255 250 245 239 242 244 248 250 267 271 263 247 233 230 225 220 218 220 197 145 131 128 110 83 100 122 132 130 126 133 139 143 145 151 153 156 161 169 169 175 165 155 150 147 143 148 145 147 149 154 154 145 152 134 94 108 303 346 322 343 345 341 337 322 316 330 330 325 320 320 316 316 312 309 307 304 302 300 295 289 285 287
290 271 257 252 249 244 242 238 239 244 252 252 254 260 247 235 228 224 220 217 198 164 154 149 144 139 130 119 128 130 132 128 120 112 126 143 178 185 171 171 167 165 165 153 150 151 143 140 144 149 148 148 146 139 131 136 119 21 21 338 317 342 271 277 233 227 241 290 333 332 326 324 323 323 319 313 309 305 302 300 300 298 296 292 291
325 282 254 243 231 241 241 237 237 239 243 243 244 245 247 235 221 219 213 202 177 169 160 140 145 136 133 136 141 139 135 148 154 154 165 171 184 191 171 167 167 160 152 145 143 143 136 136 138 145 148 136 133 132 132 122 80 48 1 315 335 333 314 317 340 327 328 344 331 334 330 327 325 322 319 313 309 307 306 306 303 300 297 296 295
335 338 291 212 243 237 241 244 253 247 247 251 238 229 227 223 217 212 207 197 182 171 169 166 155 154 140 148 146 157 167 164 161 163 164 169 186 189 167 162 156 148 144 139 141 134 134 142 145 146 140 134 132 117 107 103 45 38 341 1 344 331 323 314 335 337 348 337 334 337 333 327 323 319 316 315 315 313 308 304 302 299 295 294 294
336 335 339 322 289 263 235 237 244 251 253 240 241 228 210 214 213 206 198 190 176 176 168 166 180 157 151 150 154 166 166 162 159 162 165 171 175 169 155 148 139 136 130 130 132 135 141 143 147 143 138 128 123 114 100 72 26 9 20 354 338 338 320 318 315 341 344 323 331 336 334 330 325 324 320 317 309 302 300 303 305 304 302 298 296
330 342 343 353 220 238 247 233 236 243 258 257 239 240 181 197 196 181 151 148 149 158 155 112 90 81 83 110 132 223 195 161 157 153 162 168 159 152 142 134 131 128 131 132 134 143 143 143 151 145 129 122 117 111 117 101 41 19 16 3 351 336 326 330 347 351 322 322 329 333 333 327 321 312 309 311 314 315 312 313 314 308 303 301 299
346 348 7 37 250 234 247 235 226 214 214 190 118 51 125 94 79 132 125 120 119 130 131 125 117 115 109 84 34 345 227 148 147 150 156 155 144 133 130 127 126 125 123 127 137 140 143 146 142 132 120 98 82 81 74 61 42 20 17 5 347 349 331 333 341 341 338 333 331 336 324 324 322 322 320 320 319 316 314 311 312 313 309 307 305
5 13 14 14 10 22 96 111 97 100 87 67 42 80 77 72 80 89 90 105 118 125 135 131 135 132 130 117 119 98 94 92 92 76 84 110 116 124 122 119 116 118 123 129 135 136 132 142 131 103 101 110 88 55 39 54 38 28 9 360 352 355 339 350 344 344 341 333 328 320 330 329 324 320 320 323 325 320 314 315 320 319 315 311 308
13 14 18 32 46 67 68 69 85 91 106 104 104 97 103 107 97 100 108 104 89 102 116 120 121 127 130 135 132 115 108 112 115 128 127 121 116 112 108 109 117 123 124 120 107 111 120 115 108 109 140 123 96 94 69 54 33 18 18 1 350 356 1 352 341 339 330 318 313 320 329 330 327 323 323 324 320 316 316 320 320 316 314 314 313
16 17 15 35 54 49 51 69 97 98 93 89 81 73 79 77 85 85 89 91 96 102 102 102 109 117 123 127 126 121 115 111 112 120 123 124 121 119 124 125 121 122 116 111 114 110 120 140 134 134 133 89 62 48 77 79 71 60 24 43 17 11 352 352 345 329 321 319 314 314 318 316 316 324 314 314 319 318 319 319 316 318 319 315 315
26 30 27 25 28 50 51 36 26 34 47 51 54 54 65 59 62 71 66 72 86 93 101 112 122 128 122 110 106 97 95 99 92 91 103 116 121 120 118 123 124 113 108 109 108 103 79 69 84 74 67 64 78 59 30 42 43 72 54 33 58 19 18 354 335 321 316 310 303 299 306 310 312 315 317 324 324 323 324 322 324 321 319 319 319
35 37 38 37 38 36 40 44 48 36 45 48 44 41 40 51 77 83 98 102 97 98 101 106 109 110 110 100 80 71 74 85 83 92 100 103 107 110 113 115 119 117 113 111 106 95 97 95 91 91 94 81 63 62 52 22 35 23 15 32 50 26 351 334 321 314 309 310 301 292 286 287 299 310 320 323 325 328 325 328 327 327 324 321 321
37 41 46 44 46 44 46 44 46 50 52 53 57 57 62 68 70 78 86 90 96 100 106 106 97 95 93 84 76 75 76 89 100 101 98 99 104 110 108 105 104 110 114 105 97 89 86 76 70 73 68 73 68 59 65 51 16 42 16 19 27 357 337 334 320 312 312 303 291 287 279 277 284 301 315 321 329 330 329 329 330 329 325 323 326
45 42 43 45 52 53 53 48 52 54 55 60 64 70 70 70 74 81 85 89 93 97 101 100 97 91 91 89 87 90 93 95 96 101 107 113 113 108 105 101 98 98 102 103 101 100 94 93 83 73 63 59 60 49 43 57 38 24 10 4 343 332 334 329 317 311 311 307 301 292 290 289 293 301 318 326 333 333 334 334 332 331 327 326 332
51 52 53 49 50 53 53 54 51 49 50 57 61 66 66 70 75 76 77 77 76 74 71 71 74 76 79 84 92 94 95 95 98 102 104 105 104 101 99 99 97 89 86 99 110 101 92 111 118 90 73 61 42 39 38 36 39 21 350 335 327 333 333 329 322 317 312 304 292 280 276 286 302 307 315 332 336 336 334 329 336 335 333 334 337